DLH65RO LZKZ-LZIB

Flight info

Callsign DLH65RO
Flight time 0h 48m
Altitude 32000
Route TAKOS DCT KALIF DCT SLC/N0403F240 N190 NIT
Aircraft B739/M-SDE2E3FGHIRWXY/LB1

Departure

Time 2026-05-08 12:41
Airport Košice International Airport (LZKZ)

Arrival

Time 2026-05-08 13:29
Airport M. R. Štefánik Airport (LZIB)
Time Latitude Longitude Altitude Speed Heading
2026-05-08 12:15 48.67239 21.24145 757 ft 0 kts 260°
2026-05-08 12:31 48.67239 21.24141 757 ft 1 kts 260°
2026-05-08 12:31 48.67237 21.24123 753 ft 2 kts 261°
2026-05-08 12:31 48.67233 21.24089 753 ft 4 kts 261°
2026-05-08 12:34 48.67233 21.24079 754 ft 6 kts 268°
2026-05-08 12:35 48.67278 21.24049 757 ft 6 kts 43°
2026-05-08 12:35 48.67261 21.24200 755 ft 22 kts 104°
2026-05-08 12:35 48.67225 21.24431 757 ft 22 kts 103°
2026-05-08 12:35 48.67191 21.24657 757 ft 21 kts 103°
2026-05-08 12:36 48.67186 21.24690 754 ft 0 kts 104°
2026-05-08 12:36 48.67185 21.24694 754 ft 2 kts 105°
2026-05-08 12:36 48.67157 21.24749 754 ft 14 kts 153°
2026-05-08 12:36 48.67015 21.24713 758 ft 33 kts 192°
2026-05-08 12:37 48.66767 21.24629 756 ft 37 kts 193°
2026-05-08 12:37 48.66524 21.24543 752 ft 35 kts 192°
2026-05-08 12:37 48.66281 21.24458 745 ft 37 kts 193°
2026-05-08 12:37 48.66030 21.24371 747 ft 38 kts 193°
2026-05-08 12:38 48.65774 21.24280 751 ft 37 kts 193°
2026-05-08 12:38 48.65522 21.24189 747 ft 38 kts 193°
2026-05-08 12:38 48.65248 21.24096 744 ft 45 kts 193°
2026-05-08 12:38 48.64995 21.24006 743 ft 25 kts 195°
2026-05-08 12:39 48.64902 21.23861 747 ft 7 kts 264°
2026-05-08 12:39 48.64902 21.23841 747 ft 8 kts 271°
2026-05-08 12:39 48.64909 21.23785 747 ft 0 kts 290°
2026-05-08 12:40 48.64917 21.23766 744 ft 9 kts 302°
2026-05-08 12:40 48.65025 21.23677 748 ft 26 kts
2026-05-08 12:40 48.65374 21.23793 749 ft 87 kts 13°
2026-05-08 12:41 48.66181 21.24075 755 ft 147 kts 11°
2026-05-08 12:41 48.67235 21.24426 1221 ft 155 kts 11°
2026-05-08 12:41 48.68330 21.24768 1786 ft 165 kts 10°
2026-05-08 12:41 48.69482 21.25121 2405 ft 173 kts
2026-05-08 12:42 48.70676 21.25519 3037 ft 178 kts 13°
2026-05-08 12:42 48.71867 21.25970 3622 ft 168 kts 13°
2026-05-08 12:42 48.73028 21.26406 3844 ft 187 kts 13°
2026-05-08 12:42 48.74320 21.26878 4552 ft 195 kts 13°
2026-05-08 12:43 48.75723 21.27268 5043 ft 214 kts 357°
2026-05-08 12:43 48.77130 21.26543 5772 ft 219 kts 322°
2026-05-08 12:43 48.78056 21.24727 6576 ft 221 kts 291°
2026-05-08 12:43 48.78500 21.22454 7265 ft 235 kts 283°
2026-05-08 12:44 48.78878 21.19869 7545 ft 267 kts 282°
2026-05-08 12:44 48.79283 21.17036 8202 ft 280 kts 282°
2026-05-08 12:44 48.79709 21.14140 9115 ft 283 kts 282°
2026-05-08 12:44 48.80139 21.11198 9939 ft 292 kts 279°
2026-05-08 12:45 48.80030 21.08005 10173 ft 320 kts 253°
2026-05-08 12:45 48.79223 21.04726 10480 ft 342 kts 248°
2026-05-08 12:45 48.78296 21.01329 11117 ft 353 kts 247°
2026-05-08 12:45 48.77345 20.97870 11917 ft 358 kts 248°
2026-05-08 12:46 48.76378 20.94313 12321 ft 375 kts 248°
2026-05-08 12:46 48.75371 20.90558 12568 ft 392 kts 248°
2026-05-08 12:46 48.74342 20.86684 13150 ft 398 kts 248°
2026-05-08 12:46 48.73308 20.82778 13811 ft 401 kts 248°
2026-05-08 12:47 48.72263 20.78837 14460 ft 405 kts 248°
2026-05-08 12:47 48.71207 20.74865 15093 ft 409 kts 248°
2026-05-08 12:47 48.70141 20.70856 15684 ft 413 kts 248°
2026-05-08 12:47 48.69061 20.66798 16238 ft 417 kts 248°
2026-05-08 12:48 48.67971 20.62706 16736 ft 422 kts 248°
2026-05-08 12:48 48.66866 20.58565 17228 ft 427 kts 248°
2026-05-08 12:48 48.65749 20.54386 17740 ft 430 kts 248°
2026-05-08 12:48 48.64621 20.50175 18279 ft 433 kts 248°
2026-05-08 12:49 48.63485 20.45940 18812 ft 436 kts 248°
2026-05-08 12:49 48.62340 20.41677 19249 ft 440 kts 248°
2026-05-08 12:49 48.61182 20.37373 19698 ft 443 kts 248°
2026-05-08 12:49 48.60016 20.33050 20246 ft 445 kts 248°
2026-05-08 12:50 48.58841 20.28702 20709 ft 448 kts 248°
2026-05-08 12:50 48.57853 20.24235 21150 ft 451 kts 257°
2026-05-08 12:50 48.57300 20.19558 21575 ft 454 kts 261°
2026-05-08 12:50 48.56846 20.14832 21976 ft 457 kts 262°
2026-05-08 12:51 48.56400 20.10065 22334 ft 460 kts 262°
2026-05-08 12:51 48.55443 20.00527 23077 ft 465 kts 261°
2026-05-08 12:51 48.54924 19.95701 23424 ft 468 kts 261°
2026-05-08 12:52 48.54389 19.90844 23764 ft 470 kts 261°
2026-05-08 12:52 48.53293 19.81053 24418 ft 475 kts 260°
2026-05-08 12:52 48.52739 19.76129 24698 ft 478 kts 260°
2026-05-08 12:53 48.52180 19.71166 25000 ft 480 kts 260°
2026-05-08 12:53 48.51621 19.66198 25323 ft 482 kts 260°
2026-05-08 12:53 48.51057 19.61219 25614 ft 484 kts 260°
2026-05-08 12:53 48.50487 19.56209 25851 ft 486 kts 260°
2026-05-08 12:54 48.49914 19.51201 25981 ft 483 kts 260°
2026-05-08 12:54 48.49338 19.46205 25995 ft 484 kts 260°
2026-05-08 12:54 48.48759 19.41188 26011 ft 488 kts 260°
2026-05-08 12:54 48.48173 19.36137 26002 ft 489 kts 260°
2026-05-08 12:55 48.47585 19.31083 25998 ft 489 kts 260°
2026-05-08 12:55 48.46996 19.26036 26002 ft 490 kts 260°
2026-05-08 12:55 48.46405 19.20982 26007 ft 489 kts 260°
2026-05-08 12:55 48.45812 19.15932 26003 ft 489 kts 260°
2026-05-08 12:56 48.45215 19.10886 26001 ft 488 kts 259°
2026-05-08 12:56 48.44546 19.05869 25998 ft 488 kts 258°
2026-05-08 12:56 48.43799 19.00881 25996 ft 488 kts 257°
2026-05-08 12:56 48.43025 18.95911 26005 ft 488 kts 257°
2026-05-08 12:57 48.42250 18.90943 26004 ft 488 kts 257°
2026-05-08 12:57 48.41484 18.85974 25995 ft 488 kts 257°
2026-05-08 12:57 48.40726 18.80992 25998 ft 488 kts 257°
2026-05-08 12:57 48.39974 18.76021 26005 ft 487 kts 257°
2026-05-08 12:58 48.39221 18.71034 26000 ft 488 kts 257°
2026-05-08 12:58 48.38469 18.66069 26000 ft 487 kts 257°
2026-05-08 12:58 48.37715 18.61104 26005 ft 487 kts 257°
2026-05-08 12:58 48.36957 18.56139 25999 ft 486 kts 257°
2026-05-08 12:59 48.36208 18.51251 26002 ft 486 kts 257°
2026-05-08 12:59 48.35441 18.46238 26006 ft 485 kts 257°
2026-05-08 12:59 48.34697 18.41367 26001 ft 485 kts 257°
2026-05-08 12:59 48.33941 18.36423 25988 ft 483 kts 257°
2026-05-08 13:00 48.33205 18.31617 25434 ft 462 kts 257°
2026-05-08 13:00 48.32490 18.26966 24212 ft 453 kts 257°
2026-05-08 13:00 48.31783 18.22385 23147 ft 443 kts 257°
2026-05-08 13:00 48.31092 18.17913 21920 ft 437 kts 257°
2026-05-08 13:01 48.30419 18.13571 21399 ft 415 kts 257°
2026-05-08 13:01 48.29777 18.09443 20884 ft 397 kts 257°
2026-05-08 13:01 48.29162 18.05492 20372 ft 381 kts 257°
2026-05-08 13:01 48.28871 18.01619 19841 ft 368 kts 275°
2026-05-08 13:02 48.29450 17.97962 19351 ft 356 kts 294°
2026-05-08 13:02 48.30739 17.94875 18849 ft 346 kts 311°
2026-05-08 13:02 48.32541 17.92573 18341 ft 337 kts 329°
2026-05-08 13:02 48.34666 17.91200 17847 ft 331 kts 346°
2026-05-08 13:03 48.36929 17.90829 17346 ft 326 kts
2026-05-08 13:03 48.39137 17.91462 16849 ft 323 kts 20°
2026-05-08 13:03 48.41114 17.93027 16363 ft 322 kts 37°
2026-05-08 13:03 48.42730 17.95342 15865 ft 322 kts 50°
2026-05-08 13:04 48.43935 17.98183 15359 ft 323 kts 67°
2026-05-08 13:04 48.44635 18.01387 14870 ft 322 kts 75°
2026-05-08 13:04 48.45155 18.04664 14378 ft 321 kts 77°
2026-05-08 13:04 48.45655 18.07937 13883 ft 320 kts 77°
2026-05-08 13:05 48.46169 18.11193 13377 ft 319 kts 76°
2026-05-08 13:05 48.46691 18.14421 12878 ft 315 kts 76°
2026-05-08 13:05 48.46945 18.17665 12354 ft 312 kts 94°
2026-05-08 13:05 48.46510 18.20809 12026 ft 301 kts 110°
2026-05-08 13:06 48.45607 18.23592 11771 ft 293 kts 123°
2026-05-08 13:06 48.44315 18.25944 11523 ft 292 kts 137°
2026-05-08 13:06 48.42666 18.27745 11286 ft 295 kts 153°
2026-05-08 13:06 48.40767 18.28818 11037 ft 296 kts 168°
2026-05-08 13:07 48.38731 18.29056 10789 ft 293 kts 185°
2026-05-08 13:07 48.36750 18.28437 10542 ft 291 kts 200°
2026-05-08 13:07 48.34963 18.27047 10286 ft 289 kts 216°
2026-05-08 13:07 48.33466 18.25047 10041 ft 288 kts 228°
2026-05-08 13:08 48.32261 18.22660 9788 ft 287 kts 240°
2026-05-08 13:08 48.31538 18.19876 9549 ft 285 kts 255°
2026-05-08 13:08 48.31052 18.16995 9297 ft 285 kts 256°
2026-05-08 13:08 48.30579 18.14105 9048 ft 285 kts 256°
2026-05-08 13:09 48.30106 18.11214 8801 ft 284 kts 256°
2026-05-08 13:09 48.29632 18.08331 8549 ft 284 kts 256°
2026-05-08 13:09 48.29157 18.05453 8300 ft 284 kts 256°
2026-05-08 13:09 48.29003 18.02525 7981 ft 284 kts 280°
2026-05-08 13:10 48.29755 17.99823 7706 ft 281 kts 307°
2026-05-08 13:10 48.31222 17.97930 7395 ft 279 kts 333°
2026-05-08 13:10 48.33074 17.97261 7089 ft 276 kts
2026-05-08 13:10 48.34965 17.97830 6997 ft 279 kts 25°
2026-05-08 13:11 48.36416 17.99720 6963 ft 279 kts 58°
2026-05-08 13:11 48.37182 18.02392 6967 ft 278 kts 72°
2026-05-08 13:11 48.37676 18.05207 6949 ft 279 kts 82°
2026-05-08 13:11 48.37474 18.08077 6960 ft 278 kts 111°
2026-05-08 13:12 48.36433 18.10463 6951 ft 279 kts 138°
2026-05-08 13:12 48.34781 18.11939 6953 ft 278 kts 164°
2026-05-08 13:12 48.32875 18.12161 6948 ft 277 kts 191°
2026-05-08 13:12 48.31105 18.11070 6952 ft 277 kts 217°
2026-05-08 13:13 48.29867 18.08898 6951 ft 276 kts 244°
2026-05-08 13:13 48.29309 18.06153 6961 ft 276 kts 261°
2026-05-08 13:13 48.29024 18.03297 6954 ft 277 kts 262°
2026-05-08 13:13 48.28756 18.00432 6958 ft 278 kts 262°
2026-05-08 13:14 48.28386 17.97592 6935 ft 278 kts 247°
2026-05-08 13:14 48.27227 17.95319 6757 ft 279 kts 216°
2026-05-08 13:14 48.25524 17.93849 6405 ft 284 kts 208°
2026-05-08 13:14 48.23780 17.92438 6018 ft 284 kts 208°
2026-05-08 13:15 48.22055 17.91025 5714 ft 280 kts 209°
2026-05-08 13:15 48.20360 17.89624 5458 ft 276 kts 209°
2026-05-08 13:15 48.18701 17.88240 5211 ft 271 kts 210°
2026-05-08 13:15 48.17071 17.86871 4957 ft 267 kts 210°
2026-05-08 13:16 48.15462 17.85519 4701 ft 263 kts 210°
2026-05-08 13:16 48.13874 17.84183 4446 ft 260 kts 210°
2026-05-08 13:16 48.12844 17.83316 4283 ft 253 kts 210°
2026-05-08 13:16 48.11331 17.82043 3994 ft 244 kts 210°
2026-05-08 13:17 48.09878 17.80817 3764 ft 236 kts 210°
2026-05-08 13:17 48.08466 17.79628 3498 ft 230 kts 210°
2026-05-08 13:17 48.07094 17.78472 3232 ft 223 kts 210°
2026-05-08 13:17 48.05768 17.77354 3046 ft 214 kts 210°
2026-05-08 13:18 48.04484 17.76268 2945 ft 209 kts 210°
2026-05-08 13:18 48.03233 17.75218 2958 ft 207 kts 210°
2026-05-08 13:18 48.01982 17.74166 2980 ft 206 kts 210°
2026-05-08 13:18 48.00735 17.73114 2956 ft 210 kts 210°
2026-05-08 13:19 47.99470 17.72051 2957 ft 207 kts 210°
2026-05-08 13:19 47.98251 17.71027 2970 ft 197 kts 210°
2026-05-08 13:19 47.97073 17.70023 2929 ft 189 kts 215°
2026-05-08 13:19 47.96102 17.68767 2956 ft 181 kts 225°
2026-05-08 13:20 47.95237 17.67497 2924 ft 168 kts 225°
2026-05-08 13:20 47.94400 17.66271 2950 ft 169 kts 225°
2026-05-08 13:20 47.93559 17.65058 2935 ft 167 kts 225°
2026-05-08 13:20 47.92728 17.63846 2955 ft 168 kts 225°
2026-05-08 13:21 47.91983 17.62530 2927 ft 166 kts 249°
2026-05-08 13:21 47.92046 17.60889 2943 ft 166 kts 302°
2026-05-08 13:21 47.92771 17.59580 2964 ft 165 kts 308°
2026-05-08 13:21 47.93499 17.58254 2969 ft 170 kts 308°
2026-05-08 13:22 47.94271 17.56906 2940 ft 171 kts 311°
2026-05-08 13:22 47.95060 17.55630 2944 ft 164 kts 312°
2026-05-08 13:22 47.95852 17.54387 2974 ft 168 kts 313°
2026-05-08 13:22 47.96652 17.53091 2941 ft 171 kts 313°
2026-05-08 13:23 47.97477 17.51823 2953 ft 170 kts 312°
2026-05-08 13:23 47.98287 17.50552 2950 ft 167 kts 313°
2026-05-08 13:23 47.99068 17.49290 2949 ft 165 kts 310°
2026-05-08 13:23 47.99845 17.48049 2973 ft 163 kts 314°
2026-05-08 13:24 48.00644 17.46821 2943 ft 166 kts 314°
2026-05-08 13:24 48.01453 17.45564 2948 ft 169 kts 313°
2026-05-08 13:24 48.02262 17.44305 2942 ft 166 kts 313°
2026-05-08 13:24 48.03058 17.43067 2942 ft 165 kts 313°
2026-05-08 13:25 48.03851 17.41821 2950 ft 168 kts 313°
2026-05-08 13:25 48.04661 17.40560 2954 ft 168 kts 313°
2026-05-08 13:25 48.05450 17.39323 2936 ft 160 kts 313°
2026-05-08 13:25 48.06228 17.38107 2979 ft 164 kts 313°
2026-05-08 13:26 48.07042 17.36837 2854 ft 173 kts 313°
2026-05-08 13:26 48.07868 17.35543 2691 ft 172 kts 313°
2026-05-08 13:26 48.08684 17.34262 2492 ft 168 kts 314°
2026-05-08 13:26 48.09490 17.33015 2247 ft 161 kts 315°
2026-05-08 13:27 48.10243 17.31844 2038 ft 153 kts 312°
2026-05-08 13:27 48.10631 17.31244 1929 ft 152 kts 315°
2026-05-08 13:27 48.11139 17.30453 1791 ft 153 kts 312°
2026-05-08 13:27 48.11857 17.29318 1601 ft 146 kts 313°
2026-05-08 13:28 48.12538 17.28248 1381 ft 138 kts 313°
2026-05-08 13:28 48.13196 17.27221 1187 ft 136 kts 313°
2026-05-08 13:28 48.13842 17.26197 1033 ft 136 kts 313°
2026-05-08 13:28 48.14505 17.25177 846 ft 137 kts 313°
2026-05-08 13:29 48.15160 17.24149 664 ft 136 kts 313°
2026-05-08 13:29 48.15813 17.23129 482 ft 136 kts 314°
2026-05-08 13:29 48.16413 17.22203 436 ft 86 kts 314°
2026-05-08 13:29 48.16536 17.22007 440 ft 9 kts 314°
2026-05-08 13:30 48.16592 17.21920 437 ft 17 kts 314°
2026-05-08 13:30 48.14362 17.25399 883 ft 137 kts 313°
2026-05-08 13:30 48.15149 17.24167 667 ft 136 kts 313°
2026-05-08 13:31 48.15154 17.24160 664 ft 136 kts 313°
2026-05-08 13:31 48.15807 17.23138 477 ft 136 kts 314°
2026-05-08 13:31 48.16409 17.22209 431 ft 87 kts 314°
2026-05-08 13:32 48.16536 17.22007 440 ft 9 kts 314°
2026-05-08 13:32 48.16592 17.21922 440 ft 17 kts 314°
2026-05-08 13:32 48.16642 17.21818 439 ft 23 kts 303°
2026-05-08 13:33 48.16684 17.21695 434 ft 25 kts 293°
2026-05-08 13:33 48.16737 17.21418 434 ft 31 kts 284°
2026-05-08 13:34 48.16814 17.21207 442 ft 17 kts 314°
2026-05-08 13:34 48.16911 17.21055 437 ft 25 kts 314°
2026-05-08 13:34 48.17020 17.20875 437 ft 13 kts 291°
2026-05-08 13:34 48.17014 17.20836 430 ft 0 kts 227°
2026-05-08 13:35 48.17012 17.20834 431 ft 0 kts 228°
2026-05-08 13:35 48.17005 17.20821 435 ft 2 kts 228°
2026-05-08 13:35 48.17002 17.20817 427 ft 1 kts 228°
2026-05-08 13:35 48.16951 17.20732 434 ft 33 kts 227°
2026-05-08 13:36 48.16782 17.20472 432 ft 20 kts 225°
2026-05-08 13:36 48.16728 17.20372 431 ft 0 kts 277°
2026-05-08 13:36 48.16740 17.20327 434 ft 29 kts 298°
2026-05-08 13:36 48.16858 17.20128 433 ft 18 kts 294°